Tiempo cada hora Murzino

Hoy, 21 Octubre, Miércoles

Tiempo Temperatura Precipitaciones Viento Presión Humedad
00:00 +2°C° 0 mm 2 mps 759 mmHg 86%
01:00 +3°C° 0 mm 2 mps 759 mmHg 88%
02:00 +2°C° 0 mm 3 mps 758 mmHg 92%
03:00 +2°C° 0 mm 3 mps 758 mmHg 91%
04:00 +2°C° 0 mm 3 mps 757 mmHg 90%
05:00 +3°C° 0 mm 2 mps 756 mmHg 89%
06:00 +2°C° 0.2 mm 3 mps 756 mmHg 90%
07:00 +3°C° 0.2 mm 4 mps 756 mmHg 91%
08:00 +3°C° 0 mm 4 mps 755 mmHg 90%
09:00 +3°C° 0.4 mm 4 mps 755 mmHg 91%
10:00 +3°C° 0.4 mm 4 mps 755 mmHg 92%
11:00 +3°C° 0.4 mm 4 mps 755 mmHg 93%
12:00 +4°C° 0.2 mm 4 mps 754 mmHg 93%
13:00 +4°C° 0.2 mm 3 mps 754 mmHg 93%
14:00 +4°C° 0 mm 3 mps 754 mmHg 92%
15:00 +4°C° 0.1 mm 3 mps 753 mmHg 93%
16:00 +4°C° 0.1 mm 3 mps 753 mmHg 93%
17:00 +5°C° 0.1 mm 2 mps 753 mmHg 94%
18:00 +5°C° 0 mm 3 mps 753 mmHg 94%
19:00 +5°C° 0 mm 3 mps 753 mmHg 94%
20:00 +5°C° 0 mm 3 mps 753 mmHg 94%
21:00 +5°C° 0 mm 3 mps 753 mmHg 95%
22:00 +5°C° 0 mm 3 mps 753 mmHg 95%
23:00 +5°C° 0 mm 3 mps 752 mmHg 95%

Mañana, 22 Octubre, Jueves

Tiempo Temperatura Precipitaciones Viento Presión Humedad
00:00 +5°C° 0 mm 3 mps 752 mmHg 95%
01:00 +7°C° 0 mm 3 mps 752 mmHg 95%
02:00 +7°C° 0 mm 3 mps 752 mmHg 95%
03:00 +6°C° 0.1 mm 4 mps 751 mmHg 95%
04:00 +6°C° 0.1 mm 4 mps 750 mmHg 95%
05:00 +6°C° 0.1 mm 5 mps 750 mmHg 95%
06:00 +6°C° 1 mm 5 mps 749 mmHg 95%
07:00 +7°C° 1 mm 5 mps 748 mmHg 95%
08:00 +7°C° 1 mm 5 mps 748 mmHg 95%
09:00 +8°C° 0.7 mm 5 mps 747 mmHg 94%
10:00 +8°C° 0.7 mm 5 mps 746 mmHg 94%
11:00 +8°C° 0.7 mm 5 mps 746 mmHg 93%
12:00 +9°C° 0.1 mm 5 mps 745 mmHg 92%
13:00 +9°C° 0.1 mm 5 mps 745 mmHg 91%
14:00 +10°C° 0.1 mm 5 mps 744 mmHg 90%
15:00 +10°C° 0.4 mm 6 mps 743 mmHg 90%
16:00 +10°C° 0.4 mm 6 mps 743 mmHg 90%
17:00 +11°C° 0.4 mm 6 mps 742 mmHg 90%
18:00 +11°C° 0.6 mm 6 mps 742 mmHg 89%
19:00 +11°C° 0.6 mm 7 mps 742 mmHg 87%
20:00 +11°C° 0.6 mm 7 mps 743 mmHg 86%
21:00 +11°C° 0.1 mm 7 mps 743 mmHg 85%
22:00 +11°C° 0.1 mm 7 mps 744 mmHg 83%
23:00 +11°C° 0.1 mm 7 mps 744 mmHg 82%

Pasado mañana, 23 Octubre, Viernes

Tiempo Temperatura Precipitaciones Viento Presión Humedad
00:00 +11°C° 0.1 mm 6 mps 745 mmHg 84%
01:00 +11°C° 0.1 mm 6 mps 746 mmHg 86%
02:00 +12°C° 0.1 mm 5 mps 746 mmHg 88%
03:00 +12°C° 0 mm 5 mps 746 mmHg 87%
04:00 +10°C° 0 mm 5 mps 746 mmHg 86%
05:00 +10°C° 0 mm 5 mps 746 mmHg 85%
06:00 +10°C° 0 mm 5 mps 746 mmHg 85%
07:00 +10°C° 0 mm 5 mps 746 mmHg 84%
08:00 +10°C° 0 mm 5 mps 745 mmHg 83%
09:00 +12°C° 0.1 mm 5 mps 745 mmHg 82%
10:00 +12°C° 0.1 mm 5 mps 745 mmHg 81%
11:00 +12°C° 0.1 mm 5 mps 745 mmHg 79%
12:00 +13°C° 0.4 mm 6 mps 744 mmHg 77%
13:00 +13°C° 0.4 mm 6 mps 744 mmHg 75%
14:00 +13°C° 0.4 mm 6 mps 744 mmHg 73%
15:00 +11°C° 0.1 mm 6 mps 744 mmHg 76%
16:00 +10°C° 0.1 mm 5 mps 744 mmHg 78%
17:00 +9°C° 0.1 mm 5 mps 744 mmHg 81%
18:00 +9°C° 0.1 mm 5 mps 744 mmHg 82%
19:00 +9°C° 0.1 mm 5 mps 745 mmHg 83%
20:00 +9°C° 0.1 mm 5 mps 745 mmHg 84%
21:00 +8°C° 0.1 mm 4 mps 746 mmHg 86%
22:00 +8°C° 0.1 mm 4 mps 746 mmHg 88%
23:00 +7°C° 0.1 mm 4 mps 746 mmHg 90%

24 Octubre, Sábado

Tiempo Temperatura Precipitaciones Viento Presión Humedad
00:00 +8°C° 0 mm 3 mps 747 mmHg 91%
01:00 +7°C° 0 mm 3 mps 747 mmHg 92%
02:00 +5°C° 0 mm 3 mps 748 mmHg 93%
03:00 +6°C° 0 mm 2 mps 748 mmHg 94%
04:00 +6°C° 0 mm 2 mps 748 mmHg 94%
05:00 +6°C° 0 mm 2 mps 748 mmHg 94%
06:00 +7°C° 0.1 mm 1 mps 749 mmHg 93%
07:00 +7°C° 0.1 mm 1 mps 749 mmHg 92%
08:00 +6°C° 0.1 mm 0 mps 749 mmHg 91%
09:00 +7°C° 0 mm 1 mps 749 mmHg 90%
10:00 +8°C° 0 mm 1 mps 749 mmHg 88%
11:00 +9°C° 0 mm 1 mps 749 mmHg 87%
12:00 +8°C° 0.1 mm 2 mps 749 mmHg 84%
13:00 +9°C° 0.1 mm 2 mps 749 mmHg 82%
14:00 +9°C° 0.1 mm 2 mps 749 mmHg 79%
15:00 +9°C° 0 mm 2 mps 749 mmHg 83%
16:00 +8°C° 0 mm 2 mps 749 mmHg 86%
17:00 +7°C° 0 mm 2 mps 749 mmHg 90%
18:00 +7°C° 0 mm 2 mps 749 mmHg 91%
19:00 +6°C° 0 mm 2 mps 749 mmHg 91%
20:00 +6°C° 0 mm 2 mps 749 mmHg 92%
21:00 +7°C° 0 mm 2 mps 749 mmHg 93%
22:00 +7°C° 0 mm 2 mps 749 mmHg 93%
23:00 +8°C° 0 mm 2 mps 749 mmHg 93%

25 Octubre, Domingo

Tiempo Temperatura Precipitaciones Viento Presión Humedad
00:00 +7°C° 0 mm 2 mps 749 mmHg 94%
01:00 +7°C° 0 mm 2 mps 748 mmHg 95%
02:00 +7°C° 0 mm 2 mps 748 mmHg 96%
03:00 +7°C° 0 mm 2 mps 749 mmHg 96%
04:00 +7°C° 0 mm 3 mps 749 mmHg 95%
05:00 +8°C° 0 mm 3 mps 749 mmHg 94%
06:00 +8°C° 0.1 mm 3 mps 750 mmHg 94%
07:00 +8°C° 0.1 mm 3 mps 750 mmHg 93%
08:00 +7°C° 0.1 mm 4 mps 751 mmHg 93%
09:00 +7°C° 0 mm 4 mps 751 mmHg 91%
10:00 +7°C° 0 mm 4 mps 752 mmHg 89%
11:00 +7°C° 0 mm 5 mps 753 mmHg 87%
12:00 +7°C° 0 mm 5 mps 753 mmHg 85%
13:00 +8°C° 0 mm 4 mps 753 mmHg 83%
14:00 +8°C° 0 mm 4 mps 754 mmHg 81%
15:00 +8°C° 0 mm 3 mps 755 mmHg 83%
16:00 +7°C° 0 mm 2 mps 755 mmHg 85%
17:00 +6°C° 0 mm 2 mps 756 mmHg 88%
18:00 +7°C° 0 mm 1 mps 756 mmHg 89%
19:00 +6°C° 0 mm 1 mps 757 mmHg 91%
20:00 +5°C° 0 mm 0 mps 757 mmHg 92%
21:00 +5°C° 0 mm 1 mps 757 mmHg 92%
22:00 +5°C° 0 mm 1 mps 758 mmHg 92%
23:00 +5°C° 0 mm 1 mps 758 mmHg 92%

26 Octubre, Lunes

Tiempo Temperatura Precipitaciones Viento Presión Humedad
00:00 +5°C° 0 mm 1 mps 758 mmHg 93%
01:00 +5°C° 0 mm 1 mps 758 mmHg 93%
02:00 +4°C° 0 mm 2 mps 759 mmHg 94%
03:00 +4°C° 0 mm 2 mps 759 mmHg 94%
04:00 +4°C° 0 mm 2 mps 759 mmHg 95%
05:00 +3°C° 0 mm 2 mps 759 mmHg 95%
06:00 +4°C° 0 mm 2 mps 759 mmHg 95%
07:00 +4°C° 0 mm 2 mps 759 mmHg 96%
08:00 +4°C° 0 mm 2 mps 760 mmHg 96%
09:00 +4°C° 0 mm 3 mps 760 mmHg 92%
10:00 +7°C° 0 mm 3 mps 760 mmHg 88%
11:00 +8°C° 0 mm 3 mps 760 mmHg 83%
12:00 +9°C° 0 mm 3 mps 760 mmHg 81%
13:00 +9°C° 0 mm 3 mps 760 mmHg 79%
14:00 +10°C° 0 mm 3 mps 760 mmHg 77%
15:00 +9°C° 0 mm 3 mps 760 mmHg 82%
16:00 +8°C° 0 mm 3 mps 760 mmHg 87%
17:00 +7°C° 0 mm 3 mps 760 mmHg 92%
18:00 +7°C° 0 mm 3 mps 760 mmHg 93%
19:00 +5°C° 0 mm 3 mps 760 mmHg 94%
20:00 +5°C° 0 mm 3 mps 761 mmHg 95%
21:00 +5°C° 0 mm 3 mps 761 mmHg 95%
22:00 +5°C° 0 mm 3 mps 761 mmHg 95%
23:00 +5°C° 0 mm 3 mps 761 mmHg 95%

27 Octubre, Martes

Tiempo Temperatura Precipitaciones Viento Presión Humedad
00:00 +4°C° 0 mm 3 mps 761 mmHg 95%
01:00 +4°C° 0 mm 3 mps 761 mmHg 95%
02:00 +4°C° 0 mm 3 mps 761 mmHg 94%
03:00 +4°C° 0 mm 3 mps 761 mmHg 94%
04:00 +4°C° 0 mm 3 mps 761 mmHg 94%
05:00 +4°C° 0 mm 4 mps 761 mmHg 94%
06:00 +4°C° 0 mm 4 mps 761 mmHg 94%
07:00 +4°C° 0 mm 4 mps 760 mmHg 94%
08:00 +3°C° 0 mm 4 mps 760 mmHg 94%
09:00 +5°C° 0 mm 4 mps 760 mmHg 89%
10:00 +6°C° 0 mm 4 mps 760 mmHg 84%
11:00 +7°C° 0 mm 5 mps 760 mmHg 80%
12:00 +8°C° 0 mm 5 mps 760 mmHg 78%
13:00 +8°C° 0 mm 5 mps 760 mmHg 76%
14:00 +9°C° 0 mm 5 mps 760 mmHg 74%
15:00 +8°C° 0 mm 4 mps 760 mmHg 78%
16:00 +7°C° 0 mm 4 mps 759 mmHg 82%
17:00 +7°C° 0 mm 4 mps 759 mmHg 86%
18:00 +6°C° 0 mm 4 mps 759 mmHg 87%
19:00 +6°C° 0 mm 4 mps 759 mmHg 89%
20:00 +6°C° 0 mm 4 mps 760 mmHg 90%
21:00 +6°C° 0 mm 4 mps 760 mmHg 91%
22:00 +5°C° 0 mm 3 mps 760 mmHg 92%
23:00 +5°C° 0 mm 3 mps 760 mmHg 93%
Mostrar más

Necesitamos Su Consentimiento

Meteoprog y nuestros Proveedores de Servicios pueden almacenar y acceder a sus datos personales como cookies, identificadores de dispositivo u otras tecnologías similares de su dispositivo y procesar dichos datos para personalizar contenido y anuncios, además de ofrecer funciones de redes sociales y analizar el tráfico.

  • Almacenar y/o acceder a información en su dispositivo

    Se puede almacenar o acceder a cookies, identificadores de dispositivo u otra información de su dispositivo para los fines anteriormente indicados.

  • Anuncios y contenido personalizados, medición de anuncios y contenido, percepciones del público, y desarrollo de productos

    Los anuncios y el contenido pueden personalizarse en base a su perfil. Se pueden añadir más datos para personalizar mejor los anuncios y contenidos. Se puede medir el rendimiento de los anuncios y contenidos. Se puede obtener la percepción sobre el público que ha visto los anuncios y contenidos. Dichos datos pueden usarse para desarrollar o mejorar la experiencia del usuario, sistemas y software.

Al hacer clic en ‘Estoy De Acuerdo’ usted permitirá el uso de las cookies, identificadores de dispositivo, balizas web u otras tecnologías similares indicadas. Su configuración puede cambiarse desde el navegador de su dispositivo.

Para ciertos fines, los intereses legítimos pueden ser considerados por encima del consentimiento. Puede leer más sobre ello en nuestra Política de Privacidad y Cookies.